| time (UTC) | temp F | wind direction | speed MPH | gust MPH | rain 1hr in | rain 24hr in | rain mn in | humidity % | barometer mb |
| 20260905042016 | 77 | 157 | 3.0 | 7.0 | 0.00 | 0.00 | 0.00 | 68 | 1016.3 |
| 20260905041021 | 77 | 157 | 4.0 | 9.0 | 0.00 | 0.00 | 0.00 | 67 | 1016.3 |
| 20260905040017 | 76 | 157 | 4.0 | 9.0 | 0.00 | 0.00 | 0.00 | 68 | 1016.2 |
| 20260905035117 | 75 | 157 | 3.0 | 6.0 | 0.00 | 0.00 | 0.00 | 68 | 1016.1 |
| 20260905034016 | 75 | 135 | 2.0 | 4.0 | 0.00 | 0.00 | 0.00 | 69 | 1015.9 |
| 20260905033016 | 76 | 135 | 2.0 | 5.0 | 0.00 | 0.00 | 0.00 | 69 | 1015.8 |
| 20260905032016 | 76 | 135 | 2.0 | 4.0 | 0.00 | 0.00 | 0.00 | 69 | 1015.7 |
| 20260905030016 | 77 | 135 | 2.0 | 4.0 | 0.00 | 0.00 | 0.00 | 68 | 1015.5 |
| 20260905025016 | 77 | 135 | 2.0 | 4.0 | 0.00 | 0.00 | 0.00 | 68 | 1015.3 |
| 20260905024017 | 77 | 135 | 2.0 | 4.0 | 0.00 | 0.00 | 0.00 | 66 | 1015.1 |
| 20260905023016 | 77 | 135 | 2.0 | 3.0 | 0.00 | 0.00 | 0.00 | 66 | 1014.9 |
| 20260905022016 | 78 | 135 | 1.0 | 3.0 | 0.00 | 0.00 | 0.00 | 66 | 1014.9 |
| 20260905021017 | 78 | 135 | 1.0 | 3.0 | 0.00 | 0.00 | 0.00 | 65 | 1014.7 |
| 20260905020017 | 79 | 135 | 2.0 | 3.0 | 0.00 | 0.00 | 0.00 | 63 | 1014.8 |
| 20260905015017 | 79 | 135 | 2.0 | 4.0 | 0.00 | 0.00 | 0.00 | 62 | 1014.9 |
| 20260905014022 | 80 | 157 | 2.0 | 4.0 | 0.00 | 0.00 | 0.00 | 60 | 1014.8 |
| 20260905013017 | 80 | 135 | 3.0 | 6.0 | 0.00 | 0.00 | 0.00 | 58 | 1014.7 |
| 20260905012016 | 81 | 157 | 4.0 | 7.0 | 0.00 | 0.00 | 0.00 | 57 | 1014.5 |
| 20260905011016 | 81 | 157 | 3.0 | 5.0 | 0.00 | 0.00 | 0.00 | 54 | 1014.7 |
| 20260905005016 | 83 | 135 | 5.0 | 11.0 | 0.00 | 0.00 | 0.00 | 58 | 1014.8 |
| 20260905004017 | 83 | 180 | 5.0 | 9.0 | 0.00 | 0.00 | 0.00 | 58 | 1014.9 |
| 20260905003017 | 84 | 180 | 4.0 | 10.0 | 0.00 | 0.00 | 0.00 | 55 | 1015.0 |
| 20260905002017 | 85 | 180 | 5.0 | 12.0 | 0.00 | 0.00 | 0.00 | 55 | 1014.9 |
| 20260905001017 | 86 | 202 | 6.0 | 13.0 | 0.00 | 0.00 | 0.00 | 54 | 1015.1 |
| 20260904235016 | 86 | 180 | 6.0 | 13.0 | 0.00 | 0.00 | 0.00 | 53 | 1014.7 |
| 20260904234017 | 86 | 157 | 6.0 | 13.0 | 0.00 | 0.00 | 0.00 | 53 | 1014.7 |
| 20260904233117 | 86 | 157 | 5.0 | 9.0 | 0.00 | 0.00 | 0.00 | 52 | 1014.5 |
| 20260904232017 | 87 | 157 | 4.0 | 8.0 | 0.00 | 0.00 | 0.00 | 51 | 1014.4 |
| 20260904231017 | 87 | 157 | 5.0 | 9.0 | 0.00 | 0.00 | 0.00 | 49 | 1014.3 |
| 20260904230017 | 88 | 157 | 6.0 | 11.0 | 0.00 | 0.00 | 0.00 | 45 | 1014.4 |
| 20260904225017 | 89 | 135 | 6.0 | 13.0 | 0.00 | 0.00 | 0.00 | 44 | 1014.5 |
| 20260904224017 | 88 | 135 | 6.0 | 13.0 | 0.00 | 0.00 | 0.00 | 46 | 1014.5 |
| 20260904223017 | 89 | 135 | 6.0 | 14.0 | 0.00 | 0.00 | 0.00 | 50 | 1014.4 |
| 20260904222017 | 88 | 157 | 6.0 | 13.0 | 0.00 | 0.00 | 0.00 | 51 | 1014.1 |
| 20260904221017 | 88 | 180 | 8.0 | 13.0 | 0.00 | 0.00 | 0.00 | 50 | 1014.3 |
| 20260904215016 | 88 | 135 | 6.0 | 12.0 | 0.00 | 0.00 | 0.00 | 53 | 1014.3 |
| 20260904214017 | 87 | 112 | 5.0 | 10.0 | 0.00 | 0.00 | 0.00 | 55 | 1014.5 |
| 20260904213017 | 87 | 112 | 6.0 | 12.0 | 0.00 | 0.00 | 0.00 | 55 | 1014.9 |
| 20260904212017 | 88 | 135 | 7.0 | 14.0 | 0.00 | 0.00 | 0.00 | 52 | 1015.0 |
| 20260904210017 | 89 | 135 | 6.0 | 12.0 | 0.00 | 0.00 | 0.00 | 52 | 1015.2 |
| 20260904205017 | 89 | 157 | 5.0 | 10.0 | 0.00 | 0.00 | 0.00 | 54 | 1015.5 |
| 20260904204017 | 88 | 135 | 6.0 | 12.0 | 0.00 | 0.00 | 0.00 | 54 | 1015.5 |
| 20260904203022 | 88 | 112 | 7.0 | 13.0 | 0.00 | 0.00 | 0.00 | 55 | 1015.7 |
| 20260904202022 | 88 | 135 | 7.0 | 12.0 | 0.00 | 0.00 | 0.00 | 54 | 1015.7 |
| 20260904201017 | 87 | 157 | 5.0 | 10.0 | 0.00 | 0.00 | 0.00 | 57 | 1015.7 |
| 20260904200017 | 87 | 180 | 7.0 | 12.0 | 0.00 | 0.00 | 0.00 | 56 | 1015.7 |
| 20260904195020 | 88 | 135 | 6.0 | 11.0 | 0.00 | 0.00 | 0.00 | 56 | 1015.9 |
| 20260904194017 | 88 | 180 | 7.0 | 12.0 | 0.00 | 0.00 | 0.00 | 56 | 1016.0 |
| 20260904193017 | 88 | 157 | 6.0 | 12.0 | 0.00 | 0.00 | 0.00 | 55 | 1016.0 |
| 20260904192017 | 88 | 112 | 7.0 | 13.0 | 0.00 | 0.00 | 0.00 | 56 | 1016.0 |
| 20260904191017 | 89 | 180 | 6.0 | 12.0 | 0.00 | 0.00 | 0.00 | 54 | 1016.1 |
| 20260904190017 | 89 | 135 | 5.0 | 10.0 | 0.00 | 0.00 | 0.00 | 54 | 1016.2 |
| 20260904185017 | 88 | 157 | 7.0 | 13.0 | 0.00 | 0.00 | 0.00 | 55 | 1016.2 |
| 20260904184017 | 90 | 157 | 6.0 | 12.0 | 0.00 | 0.00 | 0.00 | 53 | 1016.5 |
| 20260904183017 | 89 | 135 | 6.0 | 11.0 | 0.00 | 0.00 | 0.00 | 56 | 1016.5 |
| 20260904182017 | 88 | 157 | 4.0 | 12.0 | 0.00 | 0.00 | 0.00 | 57 | 1016.6 |
| 20260904181117 | 88 | 225 | 6.0 | 11.0 | 0.00 | 0.00 | 0.00 | 58 | 1016.6 |
| 20260904174016 | 84 | 180 | 7.0 | 13.0 | 0.00 | 0.00 | 0.00 | 64 | 1016.7 |
| 20260904173016 | 85 | 180 | 6.0 | 12.0 | 0.00 | 0.00 | 0.00 | 63 | 1016.9 |
| 20260904172016 | 85 | 180 | 8.0 | 17.0 | 0.00 | 0.00 | 0.00 | 61 | 1016.8 |
| 20260904171016 | 84 | 180 | 8.0 | 14.0 | 0.00 | 0.00 | 0.00 | 63 | 1017.1 |
| 20260904170016 | 83 | 180 | 6.0 | 11.0 | 0.00 | 0.00 | 0.00 | 65 | 1016.9 |
| 20260904165116 | 82 | 135 | 5.0 | 11.0 | 0.00 | 0.00 | 0.00 | 67 | 1017.1 |
| 20260904161016 | 81 | 180 | 7.0 | 16.0 | 0.00 | 0.00 | 0.00 | 70 | 1017.0 |
| 20260904160016 | 81 | 180 | 6.0 | 12.0 | 0.00 | 0.00 | 0.00 | 70 | 1017.2 |
| 20260904155016 | 81 | 180 | 7.0 | 11.0 | 0.00 | 0.00 | 0.00 | 70 | 1017.1 |
| 20260904154016 | 80 | 180 | 6.0 | 12.0 | 0.00 | 0.00 | 0.00 | 74 | 1016.9 |
| 20260904153016 | 79 | 180 | 6.0 | 11.0 | 0.00 | 0.00 | 0.00 | 74 | 1016.8 |
| 20260904152016 | 78 | 180 | 6.0 | 13.0 | 0.00 | 0.00 | 0.00 | 76 | 1016.6 |
| 20260904151016 | 78 | 180 | 6.0 | 12.0 | 0.00 | 0.00 | 0.00 | 77 | 1016.7 |
| 20260904150016 | 77 | 180 | 5.0 | 10.0 | 0.00 | 0.00 | 0.00 | 79 | 1016.6 |
| 20260904145016 | 77 | 157 | 4.0 | 9.0 | 0.00 | 0.00 | 0.00 | 80 | 1016.8 |
| 20260904144016 | 75 | 157 | 5.0 | 9.0 | 0.00 | 0.00 | 0.00 | 83 | 1016.8 |
| 20260904142016 | 75 | 157 | 6.0 | 12.0 | 0.00 | 0.00 | 0.00 | 83 | 1016.4 |
| 20260904141016 | 75 | 180 | 5.0 | 11.0 | 0.00 | 0.00 | 0.00 | 85 | 1016.4 |
| 20260904140016 | 75 | 180 | 7.0 | 13.0 | 0.00 | 0.00 | 0.00 | 85 | 1016.3 |
| 20260904134016 | 74 | 180 | 5.0 | 11.0 | 0.00 | 0.00 | 0.00 | 87 | 1015.9 |
| 20260904133116 | 73 | 180 | 5.0 | 12.0 | 0.00 | 0.00 | 0.00 | 88 | 1015.8 |
| 20260904132016 | 73 | 157 | 4.0 | 9.0 | 0.00 | 0.00 | 0.00 | 88 | 1015.7 |
| 20260904131016 | 72 | 157 | 4.0 | 9.0 | 0.00 | 0.00 | 0.00 | 88 | 1015.6 |
| 20260904130016 | 72 | 180 | 4.0 | 6.0 | 0.00 | 0.00 | 0.00 | 88 | 1015.5 |
| 20260904124116 | 72 | 180 | 4.0 | 9.0 | 0.00 | 0.00 | 0.00 | 88 | 1015.0 |
| 20260904123016 | 72 | 180 | 4.0 | 6.0 | 0.00 | 0.00 | 0.00 | 88 | 1014.9 |
| 20260904122017 | 72 | 180 | 4.0 | 9.0 | 0.00 | 0.00 | 0.00 | 87 | 1014.7 |
| 20260904121117 | 72 | 180 | 5.0 | 9.0 | 0.00 | 0.00 | 0.00 | 87 | 1014.6 |
| 20260904120016 | 72 | 202 | 8.0 | 13.0 | 0.00 | 0.00 | 0.00 | 87 | 1014.6 |
| 20260904115016 | 72 | 180 | 8.0 | 13.0 | 0.00 | 0.00 | 0.00 | 87 | 1014.7 |
| 20260904114016 | 72 | 180 | 8.0 | 14.0 | 0.00 | 0.00 | 0.00 | 86 | 1014.7 |
| 20260904113016 | 72 | 180 | 8.0 | 13.0 | 0.00 | 0.00 | 0.00 | 86 | 1014.8 |
| 20260904112016 | 73 | 180 | 8.0 | 14.0 | 0.00 | 0.00 | 0.00 | 86 | 1015.0 |
| 20260904111016 | 73 | 180 | 8.0 | 12.0 | 0.00 | 0.00 | 0.00 | 86 | 1014.9 |
| 20260904110017 | 73 | 180 | 7.0 | 11.0 | 0.00 | 0.00 | 0.00 | 86 | 1014.9 |
| 20260904105016 | 73 | 180 | 7.0 | 15.0 | 0.00 | 0.00 | 0.00 | 85 | 1014.9 |
| 20260904104016 | 73 | 180 | 9.0 | 15.0 | 0.00 | 0.00 | 0.00 | 85 | 1014.9 |
| 20260904103016 | 73 | 180 | 8.0 | 14.0 | 0.00 | 0.00 | 0.00 | 85 | 1014.9 |
| 20260904102016 | 73 | 180 | 9.0 | 16.0 | 0.00 | 0.00 | 0.00 | 85 | 1015.0 |
| 20260904101016 | 73 | 180 | 9.0 | 17.0 | 0.00 | 0.00 | 0.00 | 85 | 1014.9 |
| 20260904100016 | 73 | 202 | 10.0 | 17.0 | 0.00 | 0.00 | 0.00 | 85 | 1014.9 |
| 20260904095016 | 73 | 180 | 8.0 | 15.0 | 0.00 | 0.00 | 0.00 | 85 | 1014.9 |
| 20260904094117 | 73 | 180 | 7.0 | 15.0 | 0.00 | 0.00 | 0.00 | 84 | 1014.9 |
| 20260904093116 | 73 | 180 | 7.0 | 15.0 | 0.00 | 0.00 | 0.00 | 84 | 1014.8 |
| 20260904092016 | 73 | 180 | 8.0 | 13.0 | 0.00 | 0.00 | 0.00 | 84 | 1015.1 |
| 20260904091016 | 73 | 180 | 6.0 | 12.0 | 0.00 | 0.00 | 0.00 | 83 | 1015.1 |
| 20260904090116 | 73 | 180 | 6.0 | 10.0 | 0.00 | 0.00 | 0.00 | 82 | 1015.2 |
| 20260904085017 | 74 | 180 | 7.0 | 14.0 | 0.00 | 0.00 | 0.00 | 81 | 1015.1 |
| 20260904083117 | 74 | 180 | 7.0 | 16.0 | 0.00 | 0.00 | 0.00 | 79 | 1015.3 |
| 20260904082016 | 74 | 180 | 7.0 | 13.0 | 0.00 | 0.00 | 0.00 | 78 | 1015.2 |
| 20260904081016 | 75 | 180 | 6.0 | 11.0 | 0.00 | 0.00 | 0.00 | 77 | 1015.2 |
| 20260904080016 | 75 | 180 | 7.0 | 14.0 | 0.00 | 0.00 | 0.00 | 77 | 1015.2 |
| 20260904075017 | 75 | 157 | 8.0 | 15.0 | 0.00 | 0.00 | 0.00 | 77 | 1015.5 |
| 20260904074117 | 75 | 180 | 6.0 | 12.0 | 0.00 | 0.00 | 0.00 | 77 | 1015.7 |
| 20260904073016 | 75 | 180 | 8.0 | 15.0 | 0.00 | 0.00 | 0.00 | 76 | 1015.6 |
| 20260904072016 | 76 | 180 | 8.0 | 18.0 | 0.00 | 0.00 | 0.00 | 75 | 1015.7 |
| 20260904071017 | 76 | 180 | 8.0 | 16.0 | 0.00 | 0.00 | 0.00 | 75 | 1015.7 |
| 20260904070016 | 76 | 180 | 9.0 | 20.0 | 0.00 | 0.00 | 0.00 | 74 | 1015.7 |
| 20260904065016 | 77 | 180 | 10.0 | 19.0 | 0.00 | 0.00 | 0.00 | 73 | 1015.6 |
| 20260904064016 | 77 | 180 | 9.0 | 17.0 | 0.00 | 0.00 | 0.00 | 71 | 1015.7 |
| 20260904063016 | 77 | 180 | 7.0 | 14.0 | 0.00 | 0.00 | 0.00 | 70 | 1015.5 |
| 20260904062016 | 77 | 180 | 7.0 | 15.0 | 0.00 | 0.00 | 0.00 | 69 | 1015.5 |
| 20260904061016 | 78 | 180 | 7.0 | 14.0 | 0.00 | 0.00 | 0.00 | 68 | 1015.5 |
| 20260904060016 | 78 | 180 | 7.0 | 13.0 | 0.00 | 0.00 | 0.00 | 67 | 1015.6 |
| 20260904055016 | 78 | 157 | 6.0 | 10.0 | 0.00 | 0.00 | 0.00 | 66 | 1015.6 |
| 20260904054017 | 78 | 180 | 7.0 | 13.0 | 0.00 | 0.00 | 0.00 | 65 | 1015.6 |
| 20260904053016 | 79 | 180 | 6.0 | 16.0 | 0.00 | 0.00 | 0.00 | 64 | 1015.6 |
| 20260904052017 | 79 | 180 | 7.0 | 13.0 | 0.00 | 0.00 | 0.00 | 64 | 1015.3 |
| 20260904050017 | 80 | 180 | 7.0 | 13.0 | 0.00 | 0.00 | 0.00 | 63 | 1015.2 |
| 20260904045016 | 80 | 180 | 9.0 | 17.0 | 0.00 | 0.00 | 0.00 | 63 | 1015.1 |
| 20260904044016 | 80 | 180 | 8.0 | 15.0 | 0.00 | 0.00 | 0.00 | 63 | 1015.1 |
| 20260904043016 | 80 | 180 | 6.0 | 14.0 | 0.00 | 0.00 | 0.00 | 63 | 1015.2 |